Flag for Bolivia Weather past 2 weeks in Santa Cruz, Bolivia

Now
73 °F

Partly cloudy.


Feels Like: 70 °F
Forecast: 69 / 79 °F
Wind: 7 mph from North

Location: Viru-Viru

Current Time: Apr 18, 2015 at 1:39:29 AM

Latest Report: Apr 18, 2015 at 1:00 AM


Visibility: N/A

Pressure: 29.92 "Hg

Humidity: 94%

Dew point: 72 °F

Location of Santa CruzLocation

Historic Weather in Santa Cruz — Graph

°F

Santa Cruz temperature yesterday

Maximum temperature yesterday: 84 °F (at 4:00 PM)
Minimum temperature yesterday: 72 °F (at 4:00 AM)
Average temperature yesterday: 76 °F

Past Weeks' High & Low Weather Summary

 TemperatureHumidityPressure
High90 °F (Apr 3, 3:00 PM)100% (Apr 4, 3:00 AM)30.12 "Hg (Apr 4, 3:00 AM)
Low64 °F (Apr 7, 6:00 AM)45% (Apr 6, 4:00 PM)29.59 "Hg (Apr 4, 5:00 PM)
Average77 °F83%29.90 "Hg
* Reported Midnight between Apr 2 and Apr 3 — Midnight between Apr 17 and Apr 18, Santa Cruz, Weather by CustomWeather, © 2015

Note: Actual official high and low records may vary slightly from our data, if they occured in-between our weather recording intervals... More about our weather records

Advertising

Santa Cruz weather history for previous 24 hours

 ConditionsComfort  
Time TempWeatherWind HumidityBarometerVisibility
12:00 AM
Sat, Apr 18
73 °FPartly cloudy.12 mph94%29.92 "HgN/A
11:00 PM
Fri, Apr 17
73 °FLight rain. Passing clouds.12 mph100%29.89 "Hg5 mi
10:00 PM73 °FPassing clouds.9 mph100%29.89 "HgN/A
9:00 PM73 °FPassing clouds.9 mph100%29.89 "HgN/A
8:00 PM75 °FPassing clouds.7 mph94%29.86 "HgN/A
7:00 PM75 °FPassing clouds.9 mph100%29.86 "HgN/A
6:00 PM77 °FPartly sunny.6 mph94%29.86 "HgN/A
5:00 PM82 °FBroken clouds.12 mph74%29.83 "HgN/A
4:00 PM84 °FBroken clouds.12 mph70%29.83 "HgN/A
3:00 PM82 °FBroken clouds.12 mph74%29.83 "HgN/A
2:00 PM79 °FBroken clouds.17 mph79%29.89 "HgN/A
1:00 PM79 °FBroken clouds.17 mph79%29.89 "HgN/A
12:00 PM79 °FBroken clouds.12 mph79%29.95 "HgN/A
11:00 AM77 °FBroken clouds.12 mph83%29.95 "HgN/A
10:00 AM75 °FMore clouds than sun.13 mph94%29.95 "HgN/A
9:00 AM75 °FMostly cloudy.14 mph94%29.92 "HgN/A
8:00 AM73 °FLight rain. Mostly cloudy.8 mph100%29.92 "Hg6 mi
7:00 AM73 °FLight rain. Mostly cloudy.9 mph94%29.89 "Hg5 mi
6:00 AM72 °FLight rain. Passing clouds.6 mph100%29.86 "Hg4 mi
5:00 AM72 °FLight rain. Partly cloudy.7 mph100%29.86 "Hg4 mi
4:00 AM72 °FLight rain. Partly cloudy.6 mph100%29.86 "Hg4 mi
3:00 AM73 °FLight rain. Partly cloudy.10 mph100%29.86 "Hg4 mi
2:00 AM75 °FPartly cloudy.10 mph94%29.86 "HgN/A
1:00 AM75 °FPartly cloudy.10 mph94%29.89 "HgN/A
Weather by CustomWeather, © 2015

See weather overviewHow to use our weather pages